Find OneWeb SL0687

NORAD ID: 61595 Int'l Des: 2024-188 Owner: ONEWEBE Country: UK Constellation: oneweb operational
又名: ONEWEB-0687 spacetrack, celestrak
LEOCIRCULARPOLARONEWEB_TYPE

当前视图

正在加载3D地球...

About OneWeb SL0687

OneWeb SL0687 (NORAD 61595) is a oneweb constellation satellite launched Oct 20, 2024 by ONEWEBE of UK. It operates in LEO, CIRCULAR, POLAR, ONEWEB_TYPE orbit with a mass of 148.00 kg.

即将过境

Passes for default location (London). Set your location on the main map for personalized predictions.

高度历史

Loading altitude history...

两行轨道根数

1 61595U 24188B 26265.73280893 -.00000192 00000-0 -52665-3 0 9991
2 61595 87.9193 346.5034 0002043 115.7922 244.3420 13.17649652 98747
Epoch: Sep 22, 2026 • Age: 16 hours

当前状态

高度 1203.0 km
远地点 / 近地点 N/A
速度 7.25 km/s
星下点 -24.91°S, 27.06°E
发射日期 Oct 20, 2024
运行时间 1.9 years
类型 internet

技术详情

分类 Payload
质量 148.00 kg
干质量 140.00 kg
长度 1.30 m
直径 1.00 m
跨度 5.00 m
形状 ? Trapezoid+2 pan
制造商 ONEWUS
平台类型 ARROW
阶段状态 In Orbit
所有者/国家 ONEWEBE/UK

Most Searched